RH
29 27 26 27 28 29 29 30 30 30 29 28 27 27 26 27 26 27 27 27 27 27 26 25 25 25 26 27 27 27 27 29 32 32 33 34 34 34 33 30 26 22 21 22 21 21 24 26 27 27 28 28 26 25 25 26 31 35 34 30 26 27 28 27 31 60 102 106 102 109 98 96 105 105 105 107 106 105 104 107 105 103 105 105 104 105 106 105
26 26 27 28 30 29 29 29 29 29 28 27 26 26 25 25 25 25 25 25 25 26 26 27 26 25 25 25 25 26 25 26 27 29 30 31 32 33 34 33 31 27 23 21 20 20 21 22 25 27 27 27 27 25 25 24 25 29 34 33 30 32 32 32 29 37 75 103 103 104 98 94 101 106 105 105 105 103 103 107 109 108 104 101 102 105 105 103
26 26 28 30 30 29 29 28 28 28 27 26 25 25 24 23 23 23 23 23 24 24 24 25 25 25 25 24 23 23 24 24 24 25 25 26 28 29 30 32 32 31 28 24 22 21 20 20 22 25 25 26 27 26 25 24 23 23 28 33 33 36 38 35 32 29 47 90 107 99 98 93 89 99 103 100 99 100 103 104 108 110 104 100 103 107 104 98
27 28 30 31 31 31 30 30 29 28 27 26 25 23 22 22 21 22 22 23 23 23 23 23 23 24 24 24 23 22 22 23 23 23 22 23 24 26 27 28 29 31 31 29 26 24 22 22 20 21 23 24 25 26 26 23 23 23 22 28 36 39 40 35 33 33 33 63 96 100 100 94 80 82 95 103 97 96 104 103 106 110 105 102 103 105 105 98
28 30 32 33 33 33 32 31 29 27 26 24 23 21 21 21 21 22 22 22 23 22 22 21 22 22 22 22 22 22 22 22 23 23 22 22 22 23 24 25 26 28 29 30 29 28 26 25 24 20 19 22 23 25 27 24 23 23 20 25 37 40 36 34 36 39 31 38 66 88 99 100 85 71 81 103 101 97 105 104 104 106 102 102 106 107 105 99
31 32 33 34 33 32 31 29 27 25 24 22 21 21 21 21 22 23 23 23 23 22 22 21 21 21 20 21 21 21 22 22 23 23 23 22 22 22 23 24 24 25 26 28 28 28 28 28 28 24 19 19 21 24 25 24 23 22 23 24 29 35 35 37 42 42 35 32 38 58 87 105 96 73 69 89 103 103 101 101 102 102 105 104 101 103 103 101
34 34 34 34 32 31 29 27 26 24 23 22 22 22 22 23 24 25 25 24 23 22 21 21 20 20 20 19 20 20 20 21 22 23 23 22 22 23 23 23 24 25 24 25 26 27 28 29 29 28 24 20 19 22 22 22 26 24 24 24 21 29 39 39 43 44 37 35 32 35 63 94 102 86 70 76 98 107 100 101 104 101 107 103 84 85 95 99
36 35 34 33 32 30 28 26 25 24 23 23 23 24 24 26 27 27 26 25 23 22 21 20 19 19 18 17 17 17 18 19 19 20 21 22 22 22 23 23 23 24 25 24 25 25 27 28 29 29 28 22 18 20 21 21 25 25 22 21 20 25 37 39 41 47 43 36 34 29 36 68 100 102 80 69 85 103 104 104 104 102 109 104 85 81 86 89
37 35 34 34 32 29 28 27 26 25 25 25 25 26 27 29 30 29 27 25 23 22 20 18 17 16 15 14 14 14 15 15 16 17 18 19 20 20 21 22 23 23 25 25 24 25 25 27 28 29 28 24 22 19 20 22 22 23 21 19 22 23 30 38 42 46 47 40 35 32 28 42 79 103 92 73 76 97 108 105 103 103 108 104 95 93 88 81
38 36 36 34 31 30 29 29 28 27 26 27 27 29 31 32 31 29 26 24 22 20 17 16 14 14 13 12 12 12 13 13 14 15 15 16 17 18 19 20 21 22 23 24 24 24 24 25 26 27 28 26 26 21 19 21 19 20 21 20 24 24 24 34 42 43 46 45 37 35 32 29 46 79 98 89 78 92 109 107 104 104 104 105 100 100 100 88
40 39 38 34 32 31 32 31 29 28 28 28 29 32 34 33 31 28 25 22 20 17 16 14 13 12 11 11 11 11 11 11 12 13 13 15 16 17 18 18 19 20 21 22 22 23 23 24 25 25 27 26 26 24 21 19 18 19 21 22 24 24 23 29 38 43 45 47 43 37 36 32 28 45 85 102 87 90 110 109 105 104 101 103 101 101 106 96
42 42 39 35 34 34 33 32 29 29 29 30 33 35 35 33 30 26 23 20 18 16 15 13 12 11 11 10 11 11 11 11 11 12 12 13 14 15 16 17 19 19 20 21 21 22 23 23 24 24 25 26 26 25 23 19 17 18 20 22 22 22 23 25 32 42 46 43 43 41 35 32 27 26 56 97 103 95 107 112 107 106 102 101 102 102 104 96
45 43 40 38 37 36 34 31 30 30 30 33 36 37 36 32 29 25 22 20 17 16 13 12 11 11 11 12 12 12 12 13 12 13 13 13 13 13 14 15 17 18 19 21 21 21 23 23 24 25 24 26 27 25 25 22 19 19 20 20 20 21 22 24 28 36 46 43 41 46 39 30 28 25 32 68 99 102 105 111 110 108 103 100 101 102 104 99
48 45 43 43 41 37 33 31 31 32 33 36 38 37 35 31 27 24 21 19 17 14 12 12 12 13 14 14 15 15 15 14 15 15 15 15 15 14 14 14 15 16 18 19 21 22 23 24 24 25 25 26 27 26 27 26 23 20 20 19 19 22 22 23 25 30 42 45 43 45 37 29 29 29 27 38 70 98 107 107 110 111 104 101 102 101 105 101
50 48 48 47 43 37 33 32 33 34 35 38 39 37 34 30 27 24 21 18 15 13 13 14 15 16 17 17 18 18 18 18 17 17 17 17 18 17 16 15 14 14 16 17 19 20 22 24 24 25 26 26 27 28 28 28 26 21 20 20 19 21 22 22 23 26 36 43 46 43 33 32 34 32 33 31 41 75 105 107 106 110 105 102 103 102 104 99
53 53 53 49 43 37 34 34 35 36 38 40 40 37 33 30 27 25 21 17 15 14 15 17 19 21 21 21 21 21 22 22 21 20 20 20 20 21 20 19 18 16 16 15 16 17 19 22 23 25 26 27 27 28 29 28 28 24 22 22 19 19 20 20 23 25 30 38 46 42 32 37 42 37 37 33 28 45 80 104 107 106 104 105 103 102 104 97
56 56 56 51 43 38 37 38 38 38 40 41 40 37 33 30 28 25 21 17 15 16 19 21 22 24 25 25 25 25 25 25 25 24 23 23 23 23 24 24 23 21 19 17 16 15 16 18 21 23 24 26 28 28 29 29 29 26 24 22 18 19 20 19 23 26 27 32 41 43 36 42 50 45 38 32 30 31 48 83 107 106 101 106 106 101 103 100
60 60 57 51 44 40 41 41 41 40 41 42 41 37 33 30 28 25 20 17 18 20 22 25 25 27 28 28 28 28 28 27 27 27 27 26 26 26 26 26 26 26 25 22 20 17 15 16 17 20 22 24 26 28 29 29 28 27 26 23 19 20 21 19 22 26 27 26 35 42 40 46 54 52 42 34 34 32 30 52 89 108 102 101 106 104 102 101
63 62 59 53 45 42 43 44 43 41 42 42 41 37 34 32 29 25 20 18 21 24 27 29 29 31 32 32 32 31 30 29 29 29 29 28 28 28 27 28 28 28 29 27 24 21 17 16 15 17 19 21 23 26 27 27 27 27 28 25 21 21 20 19 20 24 27 24 28 38 42 49 54 54 50 40 36 34 29 31 57 94 105 99 101 105 102 100
67 64 60 54 47 44 45 45 44 42 42 43 41 37 34 33 30 25 20 19 23 27 31 34 35 36 36 35 33 32 30 29 28 28 28 28 28 30 29 29 29 29 30 30 28 25 21 19 17 16 16 18 20 22 25 26 28 28 30 27 22 22 21 19 18 22 27 24 24 33 42 51 51 50 50 44 38 35 31 27 33 62 92 100 101 104 103 100
70 66 62 57 50 47 46 46 44 42 42 44 42 38 34 33 31 25 21 22 26 31 36 39 40 39 37 35 32 30 28 26 25 24 24 25 26 28 30 30 30 29 29 30 30 28 25 23 20 18 17 16 17 19 22 25 27 27 29 29 23 23 22 19 17 21 26 24 23 29 37 45 47 45 49 49 44 38 32 29 27 36 63 86 98 105 105 102
73 68 63 59 54 49 47 46 43 41 42 44 43 38 35 34 30 25 22 24 29 35 40 42 41 40 36 33 29 26 24 22 21 20 20 21 22 24 26 28 30 30 29 29 30 30 29 27 24 21 19 17 16 17 19 21 25 26 28 28 26 24 22 20 18 20 24 24 23 25 28 38 46 45 49 56 51 41 35 30 28 28 38 58 80 98 105 104
76 69 63 61 56 51 48 45 43 42 42 44 42 38 36 34 30 25 23 27 32 38 43 43 42 39 34 28 24 22 20 19 18 18 17 17 17 18 20 23 25 28 30 30 30 30 29 29 27 24 21 19 17 16 17 19 21 24 26 26 27 25 23 22 21 19 21 24 22 22 25 32 43 45 48 60 58 45 38 32 28 28 29 38 56 79 98 106
78 69 63 63 58 53 49 46 44 42 42 44 42 38 36 35 30 25 24 28 35 40 42 42 40 35 29 23 20 18 17 17 18 18 18 17 17 16 17 18 20 23 26 29 31 29 28 28 27 25 23 21 19 17 16 17 18 21 23 25 26 24 24 24 22 18 18 23 22 20 24 26 34 44 48 59 63 51 41 35 30 28 27 30 38 53 79 102
78 67 63 64 60 56 50 46 44 43 43 44 42 38 37 35 29 25 26 29 35 41 43 41 37 30 24 19 17 17 16 16 18 19 19 19 17 17 16 16 16 18 21 23 27 28 28 28 26 25 25 24 23 21 17 16 17 19 20 23 24 24 26 24 21 21 20 21 22 20 22 23 26 38 48 56 61 54 45 38 33 30 27 28 30 36 52 81
76 64 63 65 61 57 51 45 44 43 44 44 41 38 38 36 29 24 26 30 36 43 45 41 33 27 22 18 17 17 17 16 17 18 19 18 17 16 16 16 16 15 16 18 20 24 26 28 27 25 25 25 25 23 20 17 16 17 18 20 23 23 26 25 21 23 22 19 20 19 19 21 23 32 46 54 56 54 48 40 36 32 28 27 27 30 35 51
73 62 63 66 63 58 51 45 43 44 45 44 41 38 39 36 28 24 27 31 37 44 46 39 30 24 21 19 19 18 18 17 17 17 17 17 17 16 16 16 16 16 15 15 15 17 21 25 27 27 25 25 25 24 22 19 16 16 17 19 21 22 23 24 22 23 24 19 17 19 18 20 22 26 40 52 53 51 48 42 39 35 31 28 26 28 30 33
69 62 66 67 64 59 51 45 43 45 45 44 41 38 40 37 27 25 29 32 38 44 45 38 28 23 22 21 19 18 17 17 18 18 17 17 16 16 16 16 16 17 16 16 14 14 15 19 24 26 27 25 24 24 23 21 18 15 16 17 18 20 21 22 22 22 24 20 16 19 19 18 20 22 32 48 52 49 48 45 44 40 34 30 27 26 28 30
67 66 68 68 65 59 51 45 43 45 45 44 41 39 40 37 27 25 30 33 38 45 44 36 26 21 21 22 21 18 16 16 17 19 19 19 18 16 15 16 16 17 17 16 15 13 12 14 18 22 26 26 23 22 22 22 20 16 16 16 15 17 19 20 21 20 21 20 17 18 19 16 18 22 27 40 51 52 51 51 49 44 39 33 29 27 27 28
69 70 70 69 66 57 49 44 44 46 46 44 41 40 40 37 28 25 29 34 39 44 43 34 25 21 20 21 22 20 17 16 16 18 18 19 20 19 17 16 16 17 17 16 15 13 12 12 14 16 20 23 22 20 21 21 20 19 18 16 14 15 17 18 19 19 18 17 17 18 18 16 17 22 25 31 46 55 55 55 51 45 41 35 30 27 27 27
74 74 72 71 65 56 48 44 44 47 47 45 42 40 41 36 29 26 30 36 41 44 40 31 25 21 19 19 20 20 18 16 16 17 16 16 17 18 18 16 15 16 15 15 15 13 12 13 12 13 14 17 21 21 21 20 19 21 21 17 14 13 14 16 17 17 16 16 18 19 18 16 16 21 23 27 39 52 55 53 49 45 41 37 34 29 27 27
81 78 74 72 65 55 48 43 45 48 47 45 42 41 41 36 29 28 32 38 43 44 37 27 23 21 19 18 18 18 17 15 15 16 15 14 14 15 16 16 15 15 14 14 14 13 13 13 12 12 12 13 16 19 20 20 18 20 21 19 15 12 12 13 13 15 14 15 19 21 18 15 15 19 23 26 31 42 51 52 49 46 42 39 37 32 28 27
87 82 77 73 64 54 47 43 45 49 49 46 42 42 42 37 29 28 33 37 43 44 34 24 21 20 19 18 17 16 15 15 14 14 14 14 14 13 13 15 14 14 14 12 13 13 13 14 13 13 13 12 12 14 17 20 20 18 18 18 16 13 11 11 11 12 12 14 18 20 19 14 14 18 22 24 27 34 47 55 54 50 44 40 38 34 30 26
90 86 79 73 65 54 47 43 44 49 50 46 43 43 43 37 29 30 35 38 43 44 33 22 20 21 20 19 17 15 13 13 12 13 13 12 13 13 12 13 12 12 12 12 11 11 11 12 12 13 13 12 11 11 12 15 17 17 16 15 14 13 10 10 11 9 10 13 16 18 17 13 14 19 20 23 26 30 42 54 58 55 49 44 42 38 33 28
92 88 80 75 66 54 47 43 43 49 51 47 44 44 44 37 29 32 38 41 45 43 32 23 21 21 21 19 16 14 13 12 11 11 11 11 10 11 11 11 11 11 11 11 10 10 10 10 11 13 13 12 11 11 10 11 13 15 15 13 12 13 12 11 10 8 8 11 12 14 16 14 15 19 20 23 26 29 37 48 55 58 55 49 46 43 38 31
94 89 82 77 66 54 49 43 42 49 51 47 44 45 45 37 30 34 40 44 49 44 32 24 23 23 22 19 15 14 12 11 11 10 9 9 9 9 9 9 9 9 9 10 10 9 10 9 10 11 12 11 11 11 11 10 10 11 12 13 15 14 12 10 9 8 8 9 10 11 14 16 16 18 20 22 26 28 32 41 50 57 58 52 46 44 41 36
95 89 84 77 64 55 50 43 43 49 50 47 44 45 46 36 30 35 41 46 50 47 34 26 25 25 23 19 16 14 13 11 10 10 9 8 8 8 8 8 8 8 8 8 9 9 9 9 9 10 10 11 12 12 11 11 10 10 10 12 15 14 10 8 8 8 8 8 8 8 12 16 16 18 21 23 27 29 29 35 44 52 56 54 47 43 42 39
93 89 85 76 64 57 51 44 45 48 49 47 43 45 46 36 32 38 44 48 51 49 38 27 27 28 24 21 19 16 14 11 10 10 9 8 9 8 8 8 8 8 8 8 8 8 8 9 9 9 10 10 11 12 11 11 10 10 10 10 11 12 11 11 10 10 9 7 8 8 10 15 15 17 23 26 28 30 29 32 39 46 52 53 49 45 42 40
90 88 86 78 67 59 52 46 46 48 49 48 43 45 45 37 34 40 46 50 54 51 40 29 28 29 26 23 21 18 15 12 10 9 9 9 8 8 8 8 7 7 8 8 7 8 8 8 8 8 9 9 10 10 10 11 10 9 9 9 9 9 11 11 11 11 10 7 8 9 9 11 14 17 23 27 29 31 29 29 35 41 47 52 52 49 45 41
85 85 89 83 71 62 53 47 46 47 48 47 44 46 44 37 35 42 48 51 54 52 41 31 30 31 28 24 21 20 17 14 11 9 9 9 8 8 8 8 8 7 7 8 7 8 7 8 8 8 8 8 9 9 9 9 9 8 8 7 7 8 9 9 10 10 10 8 8 9 8 11 14 16 23 27 28 31 29 27 33 39 44 50 53 50 46 42
83 86 94 89 77 67 56 48 45 46 48 48 45 46 44 36 35 44 50 51 53 52 43 33 32 33 30 25 24 24 22 18 14 11 10 9 9 9 9 8 9 8 8 8 7 7 7 7 7 7 8 8 8 8 9 9 8 8 7 6 6 7 7 7 7 9 10 8 8 9 8 11 13 14 21 27 28 30 30 27 29 36 40 44 47 47 44 42
86 88 97 94 84 74 59 48 45 45 47 48 46 47 44 35 36 47 52 52 52 52 45 34 32 34 32 30 30 31 27 21 17 13 12 11 10 9 9 9 9 9 8 8 7 7 7 7 7 7 7 7 8 8 8 8 8 7 7 6 5 6 6 6 6 7 8 7 7 8 8 11 12 12 20 27 27 29 30 26 27 34 38 38 40 43 42 40
83 87 100 99 90 81 63 49 47 45 46 48 46 47 44 36 38 49 54 53 52 53 47 36 33 36 35 34 36 36 32 25 19 15 13 12 11 10 10 9 9 9 9 8 8 8 7 7 7 7 7 7 7 7 8 8 7 7 7 6 6 5 5 5 5 5 6 7 7 7 8 10 11 12 19 26 27 28 28 24 23 30 35 36 36 38 38 37
76 85 103 102 94 87 67 51 48 46 45 47 47 48 44 37 39 50 56 56 53 54 49 36 33 38 37 34 35 36 35 28 21 17 15 14 13 11 10 10 10 10 10 9 9 7 7 7 7 7 7 7 7 7 7 7 7 7 6 6 6 6 5 5 5 5 5 7 7 6 8 11 11 13 19 24 26 27 27 24 23 27 32 33 32 33 34 36
73 85 103 102 95 90 71 52 49 47 45 46 47 49 44 37 41 50 57 59 56 55 50 39 35 38 35 32 34 36 35 28 20 18 18 17 15 11 10 10 10 11 10 10 9 8 8 7 7 7 7 7 7 7 7 7 7 7 7 6 6 5 5 5 5 5 5 6 7 6 9 11 11 13 19 22 24 26 26 24 22 24 29 31 29 29 32 36
73 88 104 101 95 92 72 52 49 48 47 45 46 50 44 36 43 53 57 60 58 56 52 42 38 38 36 37 41 40 34 26 21 20 20 20 18 13 11 10 10 11 11 10 10 9 9 8 8 8 7 8 8 7 8 8 7 7 7 6 6 5 5 5 5 5 5 5 6 7 10 11 10 13 17 19 22 25 26 24 21 22 26 28 28 28 32 36
77 94 103 95 93 92 72 52 50 50 48 46 46 51 45 35 42 54 59 59 58 57 54 45 39 41 46 52 52 44 34 26 22 22 23 22 20 15 11 9 10 10 10 10 10 9 9 8 8 8 9 9 9 9 9 8 8 8 7 6 6 5 5 5 5 5 5 5 6 8 11 11 9 12 14 17 20 23 24 23 20 20 23 28 29 29 30 35
86 100 102 90 90 92 71 52 50 51 49 47 45 50 48 37 40 53 61 61 58 57 56 46 39 42 51 59 57 47 42 38 31 26 25 24 22 17 12 10 10 10 10 10 10 10 11 10 10 11 11 12 11 11 10 9 8 7 7 6 6 5 6 5 5 5 5 5 6 8 12 11 8 10 13 16 20 22 23 23 20 19 23 28 31 29 29 33
95 105 100 85 85 89 70 51 50 52 51 48 45 48 48 42 44 54 61 63 57 56 57 48 40 45 56 61 57 47 45 45 40 34 30 25 20 17 13 11 11 10 12 12 12 14 15 14 14 14 14 14 13 12 11 10 9 7 7 7 6 5 5 5 5 5 5 5 6 8 11 10 7 9 13 16 19 20 22 22 20 19 23 29 31 29 29 32
100 107 97 80 80 87 71 51 50 51 51 48 45 48 47 44 51 58 62 64 59 56 58 50 42 49 58 61 58 50 42 40 40 40 35 27 20 16 13 13 13 13 15 16 16 19 20 19 18 17 17 16 15 13 11 10 9 8 7 6 6 5 5 5 5 5 5 5 6 8 10 8 6 9 13 16 18 19 22 24 22 21 23 29 32 31 30 32
104 107 97 76 76 85 71 52 48 49 51 49 46 48 46 43 54 63 65 67 62 57 57 52 46 50 56 58 58 52 46 44 43 41 35 28 22 16 13 15 16 18 20 21 24 27 27 24 22 21 19 18 15 13 12 10 9 8 7 6 6 6 5 5 5 5 5 6 6 7 9 8 6 9 13 17 19 21 23 27 26 23 24 29 33 34 32 32
105 108 99 76 74 83 69 52 48 48 50 49 47 50 46 41 54 66 67 68 65 59 57 55 51 52 58 64 61 58 62 60 49 39 33 27 20 15 17 19 21 23 25 27 30 33 32 28 26 24 22 19 17 14 11 11 10 9 8 7 7 6 6 6 5 5 6 6 6 8 9 8 8 10 14 19 21 23 26 29 28 24 24 30 36 37 33 32
Wind_Speed
30 31 32 33 35 36 37 38 39 40 41 42 43 44 45 46 47 49 50 51 53 54 56 57 57 57 58 60 61 62 61 62 63 63 62 62 62 62 63 64 66 66 66 66 65 64 63 63 63 64 65 65 63 61 60 59 59 60 60 59 54 50 50 52 57 59 61 62 61 62 62 58 57 57 55 54 54 52 52 51 50 52 52 51 50 49 48 48
31 32 34 36 37 38 39 40 41 42 43 44 45 46 47 48 49 51 52 53 54 55 56 58 59 59 60 62 63 64 64 65 66 66 66 66 65 64 65 65 66 67 67 67 66 66 65 64 64 66 66 66 66 64 62 61 60 59 59 58 54 51 50 53 57 59 62 64 65 66 64 61 60 60 58 57 56 53 52 51 51 54 54 52 51 50 50 50
33 34 36 38 40 40 41 42 43 44 45 46 47 48 49 50 51 52 52 53 54 55 56 58 60 61 62 64 65 65 66 67 68 69 70 70 69 68 68 67 68 68 68 68 67 67 67 66 66 67 68 67 67 67 65 63 61 59 58 56 54 52 52 55 56 59 63 67 69 69 67 66 63 61 59 58 57 54 52 52 52 54 55 54 52 51 51 50
35 36 38 40 41 42 42 43 44 45 46 48 49 50 51 52 52 52 52 52 54 55 56 58 60 62 64 66 67 67 67 68 70 71 72 72 72 72 71 70 70 69 70 70 69 68 68 68 68 68 68 68 67 67 67 65 62 61 58 54 52 55 58 57 56 59 65 69 72 71 70 69 65 62 60 59 57 54 54 54 54 56 56 54 52 51 51 50
37 38 40 41 42 43 44 45 45 46 48 49 51 52 52 53 52 52 52 53 54 56 57 59 60 63 65 67 68 69 69 69 70 72 73 73 74 74 74 73 72 71 71 72 72 71 70 70 70 70 69 69 68 67 68 67 65 63 57 53 55 60 61 57 55 61 66 69 73 73 71 70 68 64 60 60 58 56 58 58 56 57 56 54 53 52 52 50
38 40 41 43 44 45 45 46 47 48 50 51 52 53 53 53 52 53 53 54 55 57 59 59 60 62 64 66 67 68 69 70 70 72 73 73 75 75 76 75 75 74 73 74 74 74 73 72 72 73 71 70 68 68 70 68 66 64 59 58 60 60 60 59 58 62 65 68 72 73 73 73 71 65 61 60 60 61 62 59 57 57 57 57 55 53 52 51
40 42 44 45 46 47 47 48 49 50 52 53 54 53 53 53 53 54 55 56 57 58 59 60 60 61 63 64 65 66 68 69 70 72 73 74 75 75 76 77 77 77 76 76 76 76 76 75 75 75 74 72 69 70 70 67 67 67 64 63 60 58 60 62 62 62 64 66 71 74 75 74 71 68 65 63 63 64 61 60 59 58 59 59 55 53 53 53
42 44 46 47 48 48 49 50 51 52 54 55 55 54 54 54 55 56 57 58 58 59 59 59 59 60 61 62 63 64 65 67 68 71 72 74 75 75 76 77 78 78 78 78 78 78 79 78 78 77 78 75 71 71 70 67 69 70 68 65 59 58 62 64 63 64 64 66 70 73 74 73 73 74 71 64 64 63 61 63 62 60 60 59 55 53 54 54
45 47 48 49 49 50 51 52 54 55 56 57 56 55 55 56 58 59 59 59 59 59 59 59 59 58 58 59 60 61 62 64 66 68 70 72 74 75 76 77 79 79 80 81 80 81 81 81 81 80 80 77 74 74 70 70 72 71 69 64 60 62 64 64 65 67 67 67 69 71 72 74 77 78 72 65 64 63 63 65 63 62 61 58 56 55 55 55
47 49 50 51 51 52 54 55 56 57 58 58 57 56 57 58 60 61 61 61 61 60 59 58 57 56 56 55 56 56 58 60 62 65 67 70 72 74 76 78 79 80 81 82 82 82 82 82 83 82 82 80 78 76 72 74 73 70 68 64 64 66 65 65 68 69 69 68 68 70 73 76 79 78 72 67 66 65 65 66 65 64 62 60 59 57 57 57
50 51 52 52 53 54 56 58 58 59 59 59 58 58 59 61 62 63 63 62 61 60 58 57 55 53 52 51 51 52 53 55 57 60 63 66 69 72 75 77 79 80 82 82 83 83 83 84 84 84 84 82 81 79 76 76 72 69 68 66 68 69 67 68 69 70 71 70 70 71 73 76 77 74 71 70 69 67 67 68 67 65 63 62 61 59 60 60
51 52 53 54 55 57 58 60 60 60 60 60 59 60 62 63 64 64 63 63 61 59 57 54 51 49 48 47 47 47 48 50 51 54 57 60 64 68 71 75 78 80 81 83 83 84 84 84 85 85 84 83 83 82 79 76 72 70 70 69 71 72 71 70 70 71 73 73 72 72 74 74 72 68 68 72 72 71 70 69 69 67 65 64 62 61 62 62
53 54 55 56 58 60 61 61 62 62 61 61 61 63 64 64 65 64 63 62 60 57 54 50 47 44 43 43 44 44 45 46 48 50 52 55 58 62 66 70 74 77 80 82 83 85 85 86 86 85 85 85 85 83 80 78 74 72 72 73 73 73 73 72 72 72 73 75 74 74 74 70 66 62 67 76 77 75 73 72 71 70 68 66 64 63 64 64
54 55 57 59 61 62 62 63 63 63 62 62 64 65 65 66 65 65 63 61 57 54 50 46 44 42 41 40 41 42 43 44 46 47 49 52 54 57 61 64 68 72 76 80 83 85 86 87 87 87 86 86 86 84 83 81 78 75 75 75 73 73 75 75 74 73 74 76 75 77 74 67 62 61 69 79 80 79 77 75 74 73 71 68 66 66 65 65
55 57 59 62 63 64 64 64 64 64 63 64 66 66 66 66 66 65 62 58 54 50 46 43 41 40 40 39 39 40 42 43 44 45 47 49 51 54 57 60 63 67 71 76 80 83 85 87 88 88 88 87 87 86 85 84 82 79 76 75 74 75 78 77 75 75 76 76 77 78 72 63 61 64 75 83 83 83 81 79 77 76 73 70 68 67 66 66
57 59 62 64 65 66 66 66 66 65 64 66 68 68 67 67 66 64 61 57 52 48 44 42 40 40 39 39 39 40 41 42 43 45 46 48 49 52 54 57 60 63 66 70 75 79 82 86 88 89 90 89 89 88 87 86 85 82 77 78 78 77 78 78 76 76 77 77 77 77 70 64 66 73 83 85 82 83 83 80 79 77 74 72 70 68 67 67
59 61 63 65 67 68 68 68 67 66 66 68 70 70 69 68 66 63 59 55 50 47 44 42 40 40 40 40 40 40 40 41 43 44 45 47 48 50 52 54 57 60 63 66 70 74 77 82 86 89 90 91 91 90 89 88 87 84 81 81 78 76 78 78 77 78 78 77 76 75 71 71 74 79 83 80 78 81 82 81 79 78 76 73 71 69 68 67
60 63 65 67 68 69 70 70 69 67 67 69 71 71 71 69 66 63 58 53 49 46 44 42 41 40 40 40 39 39 40 40 41 42 44 45 47 49 50 52 55 58 61 63 66 70 73 77 82 86 89 91 92 92 92 90 89 85 83 82 78 76 79 79 79 79 79 77 76 75 75 78 79 79 79 75 75 80 81 81 80 79 77 75 73 71 70 68
62 64 66 67 69 71 72 72 71 69 69 71 71 71 72 70 68 63 58 52 48 46 44 43 42 41 40 39 39 38 38 38 39 40 41 43 44 46 48 51 53 56 59 61 64 67 70 74 77 82 86 89 91 92 92 91 88 86 85 84 79 78 80 80 79 79 80 79 77 77 78 82 83 80 77 74 76 80 80 80 81 80 79 77 75 73 71 69
63 65 67 68 70 73 74 74 72 70 71 73 73 73 72 71 68 64 58 52 48 45 44 43 42 41 40 39 38 37 37 36 36 37 39 40 41 43 46 48 50 53 56 59 63 66 68 71 74 77 81 85 88 90 92 91 90 88 88 86 81 80 81 80 79 78 81 81 79 81 83 86 85 81 77 75 76 79 79 79 80 80 80 78 76 74 73 70
64 67 68 69 71 74 76 76 73 71 73 75 75 74 73 71 69 64 58 53 49 46 44 43 42 41 39 38 37 36 35 34 34 36 36 37 39 41 43 46 48 51 54 57 61 64 67 69 71 74 77 80 84 88 90 91 92 90 90 89 84 82 82 81 79 79 83 85 82 85 87 86 83 80 77 74 74 77 78 78 78 80 82 81 78 76 74 72
65 67 69 70 72 75 77 77 74 73 74 75 76 75 74 72 69 63 57 52 49 46 45 43 42 41 39 37 35 34 33 32 32 33 34 35 37 39 41 44 46 49 51 54 58 61 64 66 68 71 74 77 80 84 88 90 92 92 92 90 86 84 83 81 79 81 85 87 87 88 87 83 82 81 78 75 76 78 78 78 78 79 82 81 78 77 75 74
66 68 69 70 72 75 78 79 76 74 75 76 76 76 75 73 69 64 57 52 49 46 45 43 42 40 39 36 33 32 30 29 29 30 31 33 34 36 39 42 44 47 49 51 54 58 61 63 66 69 71 74 77 81 84 88 91 92 92 91 88 86 83 82 83 84 86 89 90 88 85 84 83 81 79 78 78 79 79 78 77 77 79 80 80 78 76 75
67 69 70 71 73 76 79 80 78 76 77 77 77 77 76 74 70 63 57 52 49 46 45 43 41 40 39 35 32 30 28 27 27 28 29 30 32 34 36 39 42 44 47 50 52 55 57 60 64 67 69 72 75 78 81 84 88 91 92 92 91 87 85 85 86 84 85 89 91 88 86 86 83 81 80 79 80 81 79 77 76 76 76 79 81 80 78 77
67 70 71 71 73 76 80 81 79 78 78 78 78 77 77 75 70 63 57 53 49 47 45 44 42 40 38 35 31 29 27 25 24 25 27 29 31 32 34 37 39 41 45 48 51 53 55 58 61 65 67 70 72 75 79 82 85 89 91 92 92 89 88 88 86 84 87 90 91 90 88 85 82 81 81 82 84 83 80 77 75 75 75 77 80 81 80 78
68 70 71 72 74 77 80 81 80 79 79 79 79 78 78 76 70 63 57 53 49 47 46 45 43 40 38 35 32 29 27 25 23 24 26 28 30 31 33 35 37 39 42 46 49 52 54 56 59 61 65 68 70 73 76 80 83 86 89 91 93 91 91 90 87 87 89 90 91 91 88 84 83 83 82 84 86 84 81 78 75 75 75 75 76 78 80 79
69 71 71 72 75 78 80 81 81 80 80 80 79 79 79 76 70 63 58 54 50 47 46 46 44 40 37 35 32 29 27 25 24 24 25 26 28 29 31 32 34 37 40 44 47 50 52 54 57 59 62 65 68 71 74 77 81 83 86 89 92 93 93 92 89 89 90 91 90 89 87 86 85 83 83 85 86 84 83 80 76 74 74 73 73 75 78 79
69 71 71 73 75 78 80 82 82 81 81 81 80 79 80 77 71 64 59 55 50 48 47 47 44 39 36 34 32 29 27 24 24 24 24 25 26 27 29 30 32 35 39 42 44 47 49 52 55 58 60 64 66 69 72 76 79 81 83 88 90 92 93 93 92 91 92 92 89 87 89 88 84 82 84 86 85 84 83 80 77 75 73 73 72 73 75 77
69 71 72 74 76 79 81 82 82 82 81 81 81 80 80 78 71 64 59 56 51 48 48 48 44 39 34 33 32 30 28 24 22 22 23 24 26 26 27 28 30 33 37 40 42 44 45 48 53 56 60 62 64 67 70 74 77 78 82 86 87 90 92 93 93 92 92 92 87 86 89 86 83 84 86 86 84 82 81 79 78 77 75 74 74 74 74 75
70 71 73 75 77 79 81 83 83 83 83 82 82 81 80 78 72 65 60 56 52 49 48 48 44 39 34 31 29 29 29 25 21 20 20 21 23 26 26 27 28 31 34 37 40 42 42 45 50 54 58 60 62 64 67 71 74 76 80 83 85 88 90 93 94 93 93 89 85 86 89 86 85 87 87 85 83 81 80 81 82 82 80 77 76 75 74 74
70 72 74 75 78 80 81 83 83 84 84 83 83 82 81 78 71 65 61 58 54 50 49 47 44 39 35 31 28 27 27 25 21 20 20 19 20 23 25 27 27 29 32 35 38 39 39 42 46 50 54 57 60 62 64 67 70 74 78 81 83 86 88 91 93 94 91 85 83 87 90 89 88 87 85 83 83 84 84 85 86 85 82 78 76 74 73 73
71 73 74 76 78 80 81 82 83 84 84 84 84 83 82 78 71 65 61 58 54 52 49 47 43 39 35 32 29 27 26 24 21 20 20 20 20 20 22 25 27 28 30 32 34 35 37 40 42 45 49 52 56 59 62 64 67 71 75 78 82 83 86 88 89 91 88 82 85 90 91 90 87 85 86 86 86 88 86 85 86 85 82 80 77 75 74 74
71 73 74 76 79 80 81 83 83 85 85 85 84 85 83 78 71 65 61 57 55 54 51 47 43 40 37 34 31 28 25 23 20 19 19 20 20 20 20 21 24 26 28 29 30 31 34 37 39 41 44 48 52 56 59 62 64 67 71 75 79 81 83 83 84 86 83 83 89 94 94 91 86 86 89 87 87 87 85 85 85 85 84 82 79 77 75 74
71 73 74 76 79 81 82 83 83 84 86 85 85 85 83 78 71 65 62 58 55 54 53 48 43 41 38 35 32 28 24 21 18 17 17 17 17 18 18 19 21 23 25 26 28 29 30 33 35 37 41 44 47 51 55 58 60 62 65 70 74 77 78 79 82 83 82 87 94 97 95 91 86 88 88 86 86 87 87 88 87 85 84 82 80 78 76 75
71 73 74 76 79 81 82 84 83 84 85 86 85 85 83 77 70 65 62 59 56 55 53 50 46 42 39 36 32 28 25 22 19 17 15 15 15 15 16 17 19 20 21 23 25 26 27 28 30 33 38 40 43 46 49 52 56 59 62 64 67 72 77 79 82 82 82 90 96 96 94 88 85 87 86 85 87 88 89 89 86 84 83 83 81 80 77 75
72 73 74 76 78 81 83 84 84 84 85 85 85 86 83 76 69 64 61 59 58 56 54 51 48 45 40 36 32 28 25 23 21 19 17 15 14 13 13 14 15 16 18 20 22 23 24 25 26 29 34 36 39 42 45 48 52 56 58 60 63 70 74 75 77 78 82 89 92 90 88 85 85 86 85 87 88 89 89 89 87 85 84 83 82 81 79 76
72 74 74 75 78 81 83 84 84 84 85 84 84 85 83 75 68 63 60 58 57 57 55 52 49 46 42 37 33 30 28 26 23 21 19 17 15 14 12 11 12 13 14 16 19 20 21 23 24 26 29 32 35 39 42 45 48 51 55 58 62 64 64 65 70 75 80 82 81 80 82 84 85 85 85 88 90 90 90 89 88 87 85 84 82 81 80 77
72 74 74 75 78 80 83 84 85 84 85 84 84 84 81 74 67 62 59 58 57 57 56 52 49 46 42 37 34 32 30 28 25 22 20 18 16 15 13 11 9 9 11 13 15 17 19 21 22 24 26 29 32 36 39 42 45 48 51 54 58 59 59 63 69 75 77 74 72 75 78 81 83 83 86 90 91 92 91 89 89 89 87 85 82 80 79 78
72 74 75 75 78 80 83 85 85 84 84 84 84 83 79 72 65 61 58 57 57 56 55 51 48 45 41 37 34 33 31 29 25 22 19 17 16 14 13 11 9 7 8 11 12 14 16 18 19 21 23 26 29 33 36 39 42 45 47 50 54 57 61 65 68 72 73 69 70 75 76 78 81 84 87 90 92 93 91 90 90 90 88 86 82 80 78 77
73 74 75 76 78 81 83 85 85 83 83 84 84 83 79 70 63 59 57 56 56 55 54 51 48 45 41 36 34 34 33 31 27 23 20 18 16 14 12 11 9 7 6 7 10 12 13 15 17 18 21 23 27 30 33 37 40 43 45 48 51 56 61 64 65 65 66 66 68 71 71 75 82 85 87 90 92 93 92 90 90 90 89 86 83 80 78 76
74 75 76 77 78 81 84 85 85 83 83 84 84 83 78 69 62 58 56 55 54 54 53 51 47 44 40 37 35 36 36 33 29 25 22 19 17 15 13 11 10 8 7 6 7 9 11 12 14 15 18 21 24 27 31 34 37 40 43 45 49 53 56 59 59 58 60 64 67 69 70 75 82 85 86 90 93 94 93 91 90 90 89 87 85 81 77 74
74 75 76 77 78 81 84 86 85 83 82 83 84 82 77 68 60 57 55 54 54 54 53 51 47 43 40 38 36 36 36 33 30 26 23 20 18 15 13 11 10 9 7 6 5 6 8 9 11 13 15 18 21 24 27 31 34 37 39 42 44 47 50 54 55 55 58 62 65 68 71 74 79 82 85 90 93 94 95 93 90 90 89 88 85 81 76 72
73 74 75 77 78 81 85 86 86 84 81 82 83 81 75 66 59 55 54 54 53 53 53 50 46 43 40 37 36 35 35 33 30 26 23 21 18 16 14 12 11 9 8 7 5 5 5 7 8 10 12 14 16 20 23 27 30 33 35 38 39 41 44 48 51 53 55 58 62 65 68 72 78 82 86 90 93 95 96 93 90 89 88 87 85 81 76 71
71 72 74 76 78 80 84 86 86 84 81 80 81 80 74 65 57 53 53 53 53 53 52 50 46 43 39 36 35 34 34 32 29 25 23 21 19 17 14 12 11 10 9 8 6 5 4 4 5 7 8 10 12 16 19 23 26 28 31 33 34 36 38 42 46 48 49 53 59 63 66 72 79 84 87 91 94 96 96 93 90 88 88 88 85 81 76 69
70 71 72 75 76 79 83 85 85 84 81 80 80 79 72 63 56 53 51 52 52 52 52 50 46 42 39 37 36 35 34 32 28 25 23 22 20 17 14 11 10 10 9 9 7 6 5 4 4 4 5 7 10 12 15 19 21 24 26 28 29 31 33 35 39 41 46 53 59 61 66 74 81 86 89 92 94 95 95 93 91 89 88 87 85 81 75 69
69 69 70 73 75 77 81 83 84 83 81 80 80 78 71 61 54 52 50 50 51 51 51 49 46 43 41 41 40 36 33 31 28 25 24 23 21 18 14 11 9 9 9 8 7 7 6 4 3 3 4 5 7 9 11 13 16 18 21 23 25 26 27 30 35 41 49 54 58 62 68 77 84 88 90 92 93 95 96 94 92 89 88 87 84 80 74 69
68 68 69 71 73 75 79 82 82 82 81 79 79 77 71 61 53 50 49 49 49 50 50 47 44 42 42 41 40 36 33 30 28 26 24 23 22 18 14 11 11 11 10 8 7 6 4 3 1 1 1 2 3 5 7 9 11 13 16 19 22 23 26 31 37 43 48 51 56 63 71 79 85 88 89 89 91 94 95 94 91 88 85 84 82 78 74 69
67 68 69 71 73 75 78 80 80 81 80 79 77 75 69 61 53 49 48 49 48 48 48 46 43 41 40 39 37 35 33 32 29 27 25 23 21 18 15 13 12 13 12 10 9 9 7 4 3 3 4 3 1 2 4 6 8 10 13 16 19 22 26 30 36 40 44 50 57 64 71 78 82 83 84 86 89 92 94 92 89 85 82 81 80 77 72 68
66 67 68 70 72 74 77 79 79 80 80 78 76 73 66 59 53 49 48 48 48 47 47 45 43 41 39 37 36 33 30 30 29 28 25 22 20 18 15 14 14 14 13 12 12 12 11 9 8 7 7 6 4 2 3 5 7 10 12 14 17 21 25 29 34 39 45 51 57 64 71 74 74 76 80 84 87 90 90 88 85 81 79 79 78 75 70 66
65 66 67 69 71 74 77 79 78 78 79 78 76 72 64 56 51 49 47 47 47 47 46 45 43 40 37 36 35 32 29 28 28 27 25 22 20 18 16 15 15 14 14 15 15 16 14 13 12 11 10 9 7 4 4 5 8 11 13 15 18 22 27 31 35 40 45 50 56 62 66 65 66 71 77 80 83 85 85 84 82 78 77 77 75 72 69 65
64 66 68 69 71 73 76 78 77 76 77 77 75 72 64 54 48 47 46 46 46 46 45 44 43 40 37 36 35 32 30 30 28 25 22 20 19 18 17 16 15 15 15 16 18 18 17 15 15 14 13 11 9 7 6 7 9 12 14 16 19 22 27 31 35 39 43 47 51 54 55 55 59 66 71 74 78 81 82 82 81 78 77 75 73 71 68 65
64 66 68 70 71 73 75 77 76 75 75 75 74 71 64 53 46 44 44 44 45 45 45 44 43 41 39 38 35 33 31 29 25 22 21 19 18 17 17 16 15 15 16 17 20 20 18 17 17 15 14 13 11 10 10 11 12 12 14 16 18 21 24 27 31 34 38 40 43 46 49 52 56 63 69 73 76 79 81 81 81 78 75 73 72 71 69 64
Wind_Direction
310 312 313 314 314 313 310 308 305 303 301 299 297 295 293 291 289 287 284 281 279 278 276 274 272 269 266 263 261 260 258 256 255 254 252 250 250 250 251 251 252 251 251 250 248 246 244 242 242 242 242 242 241 240 238 237 235 234 232 230 229 230 233 233 233 232 232 234 234 234 233 231 231 232 232 233 233 231 232 232 231 231 230 228 227 227 227 226
313 316 318 318 317 314 311 309 307 304 302 300 298 296 294 292 289 287 284 281 278 275 273 272 271 270 267 264 262 260 258 256 254 253 252 251 249 249 249 249 250 251 251 250 249 247 245 243 242 241 241 240 241 240 238 237 236 235 233 231 227 225 229 232 232 230 231 232 233 233 233 231 229 229 229 230 232 230 230 230 229 231 230 229 227 226 226 225
317 319 321 320 318 315 312 310 308 305 303 301 299 297 295 293 290 288 285 282 279 275 272 270 269 268 266 265 263 261 259 257 255 254 253 252 250 249 248 248 249 250 250 250 249 248 247 245 243 241 240 239 239 239 238 237 236 235 233 231 226 222 225 228 229 229 229 230 231 232 232 231 228 227 227 228 230 229 229 229 229 231 230 229 227 225 226 225
320 322 323 321 319 316 314 311 309 306 304 302 300 298 296 294 292 290 287 285 281 278 274 271 268 266 265 264 264 263 261 259 257 256 254 253 251 250 249 248 247 248 249 249 249 248 247 246 245 243 241 239 238 238 239 237 236 234 232 230 225 222 222 223 225 228 228 228 229 230 230 231 229 226 225 227 228 229 230 229 228 230 230 229 226 225 225 225
323 324 324 322 320 318 315 313 310 308 306 304 302 300 299 298 296 294 291 288 284 281 277 273 271 268 267 266 265 264 263 261 259 258 256 254 253 251 250 249 248 247 247 247 248 248 247 246 245 245 242 240 238 237 238 237 235 234 232 229 225 223 221 219 222 226 227 227 228 229 229 230 230 226 224 225 227 227 229 228 227 228 230 229 226 224 224 224
325 325 324 322 320 319 317 315 313 311 309 307 306 305 304 303 301 298 295 291 287 284 281 278 275 272 270 268 267 265 264 262 261 259 258 256 254 252 251 249 248 248 246 246 246 247 246 245 245 245 244 241 238 237 237 236 236 235 232 229 226 224 222 217 220 225 226 227 228 228 228 229 229 227 224 223 225 226 227 227 226 227 228 228 225 222 222 222
326 325 323 322 322 320 318 317 315 314 313 312 311 310 309 307 304 301 298 294 291 288 285 282 279 276 273 271 268 266 264 262 260 258 257 256 255 253 251 250 248 248 246 245 244 244 245 245 244 244 244 243 239 237 236 235 235 234 231 228 225 224 222 218 218 223 225 226 227 227 227 228 229 228 225 221 223 225 227 228 227 226 227 228 226 223 222 221
326 325 324 324 323 322 321 319 318 317 317 316 316 315 313 310 307 304 301 298 295 292 289 286 283 280 277 274 270 267 264 262 259 257 255 254 253 252 251 249 248 247 246 245 243 243 242 243 243 243 243 243 241 238 236 234 233 233 231 227 225 224 223 219 217 221 224 225 227 227 227 227 227 228 225 221 222 223 225 228 227 226 227 228 228 225 224 222
327 326 325 326 325 324 324 323 322 321 321 320 319 317 315 313 310 307 304 302 299 297 294 291 288 285 281 277 273 269 265 262 259 256 254 252 251 250 249 247 246 245 244 244 243 242 241 241 241 241 242 243 242 240 236 234 232 231 230 226 225 225 224 221 217 218 222 223 225 227 226 225 225 227 225 222 222 222 224 227 227 225 226 227 227 225 225 224
327 327 328 328 327 327 327 326 325 325 324 323 321 320 318 315 313 310 308 305 303 301 299 296 292 289 284 279 275 270 266 262 258 256 253 251 249 248 247 245 245 244 243 242 241 241 240 239 240 240 241 241 241 240 237 235 232 230 229 226 225 226 224 222 219 218 219 221 224 226 226 225 225 224 224 222 222 221 222 226 227 225 225 225 225 224 224 224
329 329 330 330 330 330 330 328 328 327 326 325 324 322 320 318 315 313 311 309 307 305 302 299 296 292 287 282 277 272 267 263 259 256 253 250 248 246 245 244 243 243 242 242 241 240 240 239 239 239 239 240 240 240 238 236 232 229 228 225 225 225 224 222 220 218 218 220 222 224 225 225 224 221 222 223 222 221 221 223 226 225 224 224 224 223 223 223
331 332 332 332 332 332 331 330 330 329 328 327 326 325 322 320 318 316 314 313 311 308 305 302 298 293 288 283 278 273 268 264 259 256 253 250 248 246 244 243 242 241 241 241 240 240 239 239 238 238 239 239 239 239 239 238 234 229 227 225 223 223 223 222 221 219 218 219 220 223 225 225 223 219 220 224 223 221 220 221 224 224 223 223 222 222 223 224
333 334 334 335 335 334 333 332 332 331 331 329 328 327 325 323 321 319 318 316 314 311 308 304 299 294 289 284 279 274 269 264 260 256 253 250 248 246 244 242 241 240 239 239 239 238 238 237 237 237 237 238 238 239 239 238 235 231 228 225 222 222 223 222 222 220 219 219 219 222 224 223 222 219 220 224 223 221 220 220 222 223 223 222 222 221 222 224
335 336 337 337 336 335 335 334 334 333 333 331 331 329 328 326 324 322 321 319 316 313 310 306 301 296 290 285 279 275 270 265 261 258 254 251 248 246 244 242 240 239 238 238 237 237 236 236 236 236 236 236 237 237 237 237 236 232 228 226 222 221 222 222 222 220 219 219 218 221 222 220 221 219 221 224 222 221 219 219 220 221 222 221 221 221 221 223
337 338 339 338 337 337 336 336 336 335 334 333 333 331 330 328 327 325 324 322 319 316 312 308 304 298 292 287 281 276 272 268 264 260 256 252 249 247 244 243 241 239 238 237 236 235 235 235 234 234 234 235 235 235 235 235 235 233 229 227 223 221 222 221 221 221 220 219 219 220 219 217 219 220 223 223 221 220 218 217 218 219 220 220 220 221 222 223
339 340 340 339 339 338 338 338 337 336 335 335 335 334 333 331 330 329 327 325 322 318 315 311 306 300 294 289 283 278 273 269 265 261 257 253 250 247 245 243 241 239 238 237 236 235 234 234 233 233 232 233 233 233 234 234 234 233 230 228 224 221 221 220 220 221 221 219 219 220 217 215 218 221 223 222 220 220 219 217 218 218 219 219 220 221 223 223
341 341 341 340 340 340 340 340 339 337 337 337 337 336 335 334 333 332 330 328 324 321 317 312 307 302 296 291 286 281 276 271 267 263 259 255 251 248 245 243 242 240 239 237 236 235 234 233 233 232 231 231 231 232 232 232 233 232 230 228 225 222 222 220 220 221 221 220 219 219 216 215 218 221 224 222 221 222 220 218 218 219 219 219 220 220 223 224
342 342 342 341 341 342 342 341 339 338 339 339 339 338 337 336 335 334 333 330 326 323 319 314 309 304 299 295 290 285 280 275 270 266 262 257 253 250 246 243 241 240 239 238 236 235 234 233 232 232 231 230 230 230 230 231 232 231 230 229 226 223 222 220 219 220 222 220 219 218 216 216 218 221 224 223 222 223 221 219 218 219 219 218 219 220 222 224
343 343 342 342 343 344 343 342 340 339 340 341 341 340 339 338 338 337 335 332 328 324 320 316 311 307 303 299 294 289 283 278 273 268 264 259 255 252 248 244 241 240 239 237 236 235 234 233 232 231 231 230 230 229 230 230 231 231 231 230 226 224 223 220 218 218 221 220 218 218 216 217 218 218 222 222 221 224 222 220 218 219 220 218 218 219 220 222
343 343 342 342 344 345 344 343 341 340 341 342 342 341 341 340 340 339 336 333 329 326 322 318 314 310 306 302 297 292 286 281 275 270 265 260 256 252 249 246 243 240 238 237 236 235 234 233 232 231 230 230 230 229 229 229 230 230 230 230 227 224 223 221 218 217 221 221 218 218 217 217 218 216 218 220 221 223 222 220 219 219 221 220 218 219 220 221
343 343 342 343 344 345 345 343 342 341 342 343 343 343 342 342 342 341 338 334 331 328 324 320 316 312 309 305 301 295 290 284 278 272 266 261 256 252 249 246 243 241 238 236 235 235 235 233 232 231 230 230 229 229 228 228 228 228 229 229 227 225 223 222 218 216 220 221 218 218 218 217 218 216 217 219 222 224 223 221 219 219 220 220 219 219 219 220
343 343 342 343 344 346 345 344 343 342 343 344 344 344 343 344 344 342 339 336 333 329 325 321 318 315 312 308 304 298 292 286 280 274 268 262 256 252 248 245 242 241 239 237 235 235 234 234 233 231 230 230 229 229 228 227 228 228 228 228 227 225 223 222 219 216 218 221 219 218 218 217 217 216 215 217 220 223 223 221 220 219 220 221 220 219 219 220
343 343 342 343 344 346 345 344 344 343 344 345 345 345 344 345 345 343 340 337 334 331 327 324 321 319 315 311 307 301 295 289 282 275 269 264 258 253 249 245 242 240 239 237 236 235 234 233 233 232 231 230 229 228 228 227 227 227 227 228 227 226 224 222 220 218 217 220 221 219 218 217 216 216 214 216 220 222 222 221 219 219 219 220 221 220 219 220
343 342 342 343 344 346 346 345 344 344 345 345 346 346 346 346 346 344 341 338 336 332 329 327 325 322 319 315 311 305 299 292 285 278 271 265 260 254 249 246 243 240 239 237 236 235 234 233 232 232 231 230 229 228 228 227 226 226 227 227 227 226 224 223 221 219 218 220 221 220 218 217 216 215 214 215 219 221 221 221 220 219 219 219 220 220 219 220
343 342 343 343 345 346 346 345 345 345 345 346 346 347 347 347 347 345 342 340 338 335 332 330 329 327 322 319 316 310 302 294 286 279 272 266 260 255 250 247 243 240 238 237 235 234 233 232 231 231 231 230 229 228 227 227 226 226 226 226 226 226 225 224 221 219 219 220 221 220 218 217 215 215 214 215 218 219 220 220 220 220 219 218 219 220 219 219
343 343 343 344 345 346 346 345 345 345 346 347 347 348 347 347 347 346 343 341 340 338 336 334 333 331 327 323 320 314 306 298 290 280 272 266 261 256 252 248 245 241 239 237 235 233 232 232 231 230 230 230 229 228 227 227 226 226 225 225 226 225 225 224 221 220 220 220 220 220 219 217 216 215 214 216 217 218 219 219 219 219 219 219 219 220 220 219
342 343 344 345 346 346 345 345 345 346 347 348 348 348 348 348 348 346 344 343 343 341 339 337 336 335 330 325 322 316 309 302 294 284 275 269 263 258 254 250 246 243 241 238 235 233 231 231 231 230 230 229 229 228 227 227 226 226 225 225 225 225 225 225 223 220 221 220 219 219 219 217 216 215 214 216 217 218 219 218 218 219 219 219 219 220 220 220
343 344 345 346 346 346 345 345 346 347 347 348 349 349 349 348 348 347 345 344 345 344 342 341 339 338 332 327 324 318 312 306 299 291 283 274 267 260 256 252 248 244 242 240 237 234 231 230 230 230 229 229 228 227 227 226 226 225 225 225 225 224 225 224 223 221 221 220 218 218 219 217 215 215 215 217 218 218 219 218 218 218 219 219 219 219 220 220
344 345 346 346 347 346 346 346 346 347 348 349 349 350 350 349 348 348 346 345 347 347 345 343 341 339 336 332 328 321 316 313 306 295 286 278 271 265 259 253 249 246 243 242 240 237 233 230 230 229 229 229 228 228 226 226 226 225 225 225 225 224 224 224 224 223 221 220 217 217 219 217 214 215 215 215 217 218 218 218 218 218 218 218 218 218 219 220
345 346 347 347 347 346 346 346 347 348 349 350 350 350 351 349 348 348 347 347 348 349 348 345 343 340 338 336 332 324 320 319 313 300 287 276 270 267 263 257 251 247 245 243 242 240 235 232 230 229 229 229 229 228 227 227 226 225 225 225 225 224 224 224 224 224 222 219 217 217 219 217 214 215 216 215 216 217 218 218 219 218 217 216 216 216 217 218
345 346 347 347 346 346 347 347 347 348 349 350 350 351 351 350 349 348 349 348 349 350 350 348 345 343 341 340 337 329 323 321 318 306 293 281 269 264 263 261 256 250 247 244 243 242 239 235 232 230 230 230 230 229 228 228 226 225 225 225 225 224 224 224 223 224 222 219 217 218 218 217 214 214 215 214 214 216 217 218 218 218 217 216 215 216 216 217
345 346 347 347 346 347 347 348 348 349 350 351 351 351 351 351 349 349 349 349 349 350 351 350 348 346 344 344 343 336 328 325 321 310 299 292 283 273 265 263 261 256 251 247 245 243 241 239 236 233 232 231 231 230 230 229 227 226 225 225 226 225 224 224 223 223 222 218 218 219 218 216 213 212 214 214 214 215 217 218 219 219 218 217 215 215 215 215
345 346 347 347 347 347 347 348 349 350 350 351 351 351 351 351 349 349 350 350 351 351 352 352 351 350 349 348 346 340 334 328 323 313 303 297 291 284 274 266 262 258 256 252 248 244 240 239 238 236 234 232 232 231 231 230 229 228 226 225 226 226 225 224 224 223 221 218 219 219 218 215 211 211 213 213 214 215 216 218 219 219 219 217 216 215 214 214
344 345 346 347 347 347 348 349 349 350 350 351 352 352 351 351 349 350 350 351 353 353 352 353 354 355 353 351 348 344 339 333 326 315 305 298 290 284 277 270 264 260 257 255 251 247 241 238 236 235 235 234 232 232 232 231 231 230 229 227 227 227 226 225 224 223 219 218 219 218 217 214 210 211 212 212 214 214 215 217 218 219 219 218 217 215 215 214
343 344 346 346 346 347 348 349 350 351 351 351 352 352 352 351 350 350 351 352 353 354 354 355 356 358 356 353 350 348 344 339 334 326 315 306 295 285 278 272 268 264 260 257 254 251 246 241 237 235 235 235 234 233 233 232 232 232 231 229 228 227 227 225 224 222 218 218 219 217 216 213 210 211 211 212 214 214 214 216 218 219 219 219 217 216 215 214
342 344 345 346 346 347 348 348 350 352 351 351 352 352 352 350 350 350 352 353 353 354 356 356 357 358 357 355 354 353 350 346 341 336 329 320 310 299 288 278 271 267 262 258 256 254 251 246 240 235 235 235 234 234 233 232 231 231 231 231 229 228 227 225 225 223 221 220 219 216 215 213 210 210 210 211 214 214 214 215 217 218 219 219 218 216 215 214
342 343 344 345 346 348 348 348 350 352 352 351 353 353 352 350 350 351 352 354 354 355 357 358 358 358 357 357 358 359 356 353 349 344 338 333 325 316 305 292 280 270 263 259 256 254 251 247 242 237 235 234 233 232 232 231 230 229 229 230 230 230 229 227 226 226 225 222 220 217 215 214 211 209 209 211 213 214 214 214 216 217 218 219 218 217 216 214
341 343 343 345 346 348 348 348 350 352 352 352 353 353 352 350 350 351 353 354 355 356 357 359 359 359 358 358 1 3 1 358 354 348 344 340 334 328 321 310 295 278 267 260 256 253 250 246 242 238 235 233 231 231 231 231 230 229 227 227 229 229 228 226 225 226 226 222 219 218 215 213 212 209 208 210 212 214 214 212 214 217 218 219 219 217 216 215
341 342 343 344 346 347 348 349 350 352 352 351 352 353 353 351 350 351 353 355 356 356 357 359 360 360 359 0 3 6 5 2 358 354 350 347 340 335 331 324 314 295 274 263 257 253 249 247 242 238 236 234 231 230 229 229 229 229 227 225 225 225 226 225 222 222 223 220 217 216 213 210 212 210 208 209 211 214 214 212 213 216 217 218 218 217 216 215
340 342 343 344 345 347 348 349 350 352 352 352 352 353 353 351 350 351 353 355 355 356 358 360 1 0 359 1 5 9 9 5 2 359 358 355 351 347 343 336 328 318 295 270 259 253 249 247 244 239 236 233 232 230 229 228 228 228 226 223 222 222 224 225 223 221 220 217 215 215 210 208 210 210 208 208 211 213 214 212 212 214 216 217 218 217 216 215
340 341 343 343 345 346 347 348 349 351 353 353 352 353 353 352 351 352 353 354 355 357 359 1 2 1 0 3 8 12 10 7 4 3 3 3 360 356 355 351 343 333 319 290 266 254 249 246 243 239 235 232 231 229 229 228 228 228 228 225 222 221 222 224 224 221 218 215 213 211 207 206 209 208 206 207 209 212 214 212 211 213 215 216 217 217 216 214
339 341 342 343 344 345 346 347 349 351 353 353 352 352 353 352 351 352 353 354 356 358 360 1 2 3 3 5 9 12 11 8 6 5 7 8 6 3 4 4 357 344 331 314 289 267 254 247 242 238 235 232 231 230 229 230 230 229 229 227 225 223 221 222 222 218 215 212 210 208 204 204 206 206 205 206 207 210 213 213 210 211 214 216 217 217 216 214
338 340 341 342 344 345 346 347 348 350 353 354 352 352 352 352 352 353 353 354 356 359 360 1 3 4 5 7 9 10 10 9 7 7 9 13 13 10 9 9 6 357 346 334 316 291 270 256 246 241 238 235 233 231 230 231 232 232 231 230 228 225 222 221 220 218 213 210 209 206 202 202 203 204 204 205 205 208 212 213 210 210 212 215 216 217 216 214
338 340 341 342 343 344 345 346 347 349 352 354 353 352 353 352 351 353 354 354 357 359 360 1 4 4 4 7 10 12 11 9 8 9 13 17 18 14 11 11 9 4 357 348 335 317 297 275 261 251 245 240 235 231 230 230 232 233 233 231 229 226 222 219 219 217 212 210 208 204 200 202 202 202 203 203 203 206 210 212 211 209 211 214 215 216 215 213
338 340 341 342 343 343 344 346 347 348 351 353 353 352 353 352 351 353 355 355 357 360 0 1 3 3 4 8 11 12 11 9 10 14 17 21 22 19 18 17 15 11 5 359 355 349 339 323 303 279 258 245 237 233 231 230 231 232 232 231 229 225 221 217 215 212 209 208 205 200 199 201 202 201 202 201 201 204 207 210 210 208 209 212 214 215 214 212
339 340 341 342 342 343 344 345 346 348 350 353 353 352 352 354 352 353 355 357 357 360 1 2 3 3 5 9 10 9 9 9 14 19 21 23 24 23 24 28 33 32 24 17 14 6 354 340 318 286 261 245 238 234 232 231 230 230 230 228 226 222 216 210 207 205 205 204 201 197 199 201 201 201 201 199 199 202 204 208 210 208 208 210 212 213 212 211
339 340 340 341 342 342 343 345 346 348 350 352 353 352 351 353 354 353 355 357 358 0 2 3 3 5 9 10 8 6 7 10 16 22 25 25 25 25 28 37 48 51 48 45 44 39 21 352 303 219 204 219 229 230 229 226 223 222 222 222 220 215 207 202 201 202 202 200 198 197 199 201 201 200 199 198 198 201 203 206 208 208 206 208 210 211 211 210
338 339 340 341 342 342 343 345 347 348 349 351 352 353 351 351 353 355 355 356 359 1 2 2 4 8 11 11 8 8 10 13 16 21 24 26 27 27 32 43 53 59 59 60 64 64 56 52 77 90 92 95 129 199 205 205 204 205 206 209 211 207 201 198 198 198 198 197 198 198 200 201 201 199 198 197 198 200 202 204 207 207 205 206 209 210 209 208
338 339 340 341 342 342 343 345 347 348 349 350 352 353 353 351 352 354 355 356 359 2 3 3 6 9 11 11 9 10 14 17 17 18 20 25 29 31 36 46 55 64 68 70 73 70 62 62 66 68 71 69 65 97 152 173 181 183 185 189 195 196 195 194 194 195 196 196 198 199 201 201 199 197 198 197 198 200 201 203 205 206 204 204 207 209 208 207
338 338 339 341 342 342 343 345 347 348 349 349 350 353 354 352 351 352 355 356 358 1 3 4 7 10 9 8 7 9 14 18 19 19 18 21 29 34 40 50 58 66 72 73 73 68 62 61 62 62 63 62 61 75 113 154 164 165 170 175 181 187 189 190 191 194 195 196 198 200 201 200 197 196 198 198 198 200 200 201 203 205 203 203 206 207 207 205
337 338 339 340 342 343 343 345 347 349 349 348 349 351 354 354 352 352 354 356 358 1 3 6 9 9 8 7 6 9 14 17 19 21 21 23 28 34 43 52 60 68 73 75 74 69 64 63 64 65 65 67 72 88 112 133 141 149 160 168 175 183 188 189 191 192 193 195 197 198 198 196 195 195 197 197 198 199 199 199 201 203 202 202 203 206 206 204
337 337 338 340 342 343 343 344 346 349 349 348 348 350 353 354 353 352 353 356 358 1 4 7 10 9 9 7 6 11 15 14 16 23 26 27 31 39 47 54 62 69 74 77 77 74 71 71 71 73 75 77 81 94 110 118 123 137 152 161 170 179 185 188 190 191 192 193 193 193 192 191 192 193 194 195 197 198 198 198 200 202 201 200 202 204 205 202